Regional Weather Roundup
Issued by NWS

Current Version | Previous Version | Text Only | Print | Product List | Glossary On
Versions: 1 2 3 4 5 6 7 8 9 10 11 12 13 14 15 16 17 18 19 20 21 22 23 24 25 26 27 28 29 30 31 32 33 34 35 36 37 38 39 40 41 42 43 44 45 46 47 48 49 50
000
ASUS45 KPSR 250710
RWRAZ

ARIZONA REGIONAL HOURLY WEATHER ROUNDUP
NATIONAL WEATHER SERVICE PHOENIX AZ
1200 AM MST FRI APR 25 2014

NOTE: FAIR INDICATES FEW OR NO CLOUDS BELOW 12,000 FEET WITH NO
SIGNIFICANT WEATHER AND/OR OBSTRUCTIONS TO VISIBILITY.

AZZ001>003-036-250800-
NORTHWEST ARIZONA

CITY           SKY/WX    TMP DP  RH WIND       PRES   REMARKS
BULLHEAD CITY  CLEAR     72  14  11 CALM      29.79S
KINGMAN        CLEAR     56   4  12 SW7       29.91S
$$

AZZ004>008-015-016-018-250800-
NORTH CENTRAL ARIZONA

CITY           SKY/WX    TMP DP  RH WIND       PRES   REMARKS
GRAND CANYON   CLEAR     33   8  35 E3        30.06F
WILLIAMS       CLEAR     37   5  25 SE6       30.13F WCI  33
PRESCOTT       PTCLDY    50  13  22 S7        30.01F
FLAGSTAFF      CLEAR     37   9  31 SW3       30.08F
PAYSON         CLEAR     52   9  17 CALM      30.06S
PAGE           CLEAR     60  14  16 SW3       29.90R
$$

AZZ009>014-017-250800-
NORTHEAST ARIZONA

CITY           SKY/WX    TMP DP  RH WIND       PRES   REMARKS
WINSLOW        CLEAR     49  13  23 S6        30.01S
SAINT JOHNS    CLEAR     51   9  18 S6        30.05S
WINDOW ROCK    CLEAR     43   2  18 E5        30.09S
SHOW LOW       CLEAR     46   9  21 S7        30.10S
$$

AZZ023-250800-
GREATER PHOENIX AREA

CITY           SKY/WX    TMP DP  RH WIND       PRES   REMARKS
PHOENIX        CLEAR     75  19  12 SW7       29.84R
BUCKEYE          N/A     64  14  14 W3        29.85S
LUKE AFB       NOT AVBL
DEER VALLEY    CLEAR     65  17  15 CALM      29.85S
SCOTTSDALE     CLEAR     71  24  17 CALM      29.87S
MESA-GATEWAY   CLEAR     66  25  20 S3        29.88S
$$

AZZ027-028-250800-
SOUTHWEST MARICOPA COUNTY AND PINAL COUNTY

CITY           SKY/WX    TMP DP  RH WIND       PRES   REMARKS
CASA GRANDE    CLEAR     64  21  19 CALM      29.88F
$$

AZZ503-504-507>509-250800-
SOUTHEAST ARIZONA

CITY           SKY/WX    TMP DP  RH WIND       PRES   REMARKS
TUCSON         CLEAR     67  17  14 SE7       29.97R
DAVIS-MONTHAN  CLEAR     65  20  17 S6        29.96R
NOGALES        CLEAR     58  19  22 E8        30.02S
SIERRA VISTA   PTCLDY    66  10  11 SW8       30.05S
DOUGLAS        CLEAR     62  11  13 SE5       30.03S
SAFFORD        CLEAR     65   9  11 W12       29.93R
$$

AZZ020-021-025-026-031-250800-
SOUTHWEST ARIZONA

CITY           SKY/WX    TMP DP  RH WIND       PRES   REMARKS
YUMA           CLEAR     72  28  19 S5        29.81S
$$

CAZ031-033-041-043-047-048-061-250800-
SOUTHERN CALIFORNIA

CITY           SKY/WX    TMP DP  RH WIND       PRES   REMARKS
DOWNTOWN L.A.  CLEAR     61  52  72 CALM      29.93S
L.A. AIRPORT   PTCLDY    61  54  77 NW3       29.93S
SAN DIEGO      PTCLDY    63  54  72 S9        29.97F
BURBANK        CLEAR     60  49  66 SE7       29.91F
ONTARIO        CLEAR     59  45  59 NW5       29.94S
RIVERSIDE      CLEAR     62  44  51 CALM      29.95S
PALM SPRINGS   PTCLDY    74  41  30 NW21      29.81S
EL CENTRO NAS  CLEAR     72  38  29 W13       29.78F
IMPERIAL       CLEAR     69  42  37 W3        29.79S
BLYTHE         CLEAR     77  30  17 SW13      29.81R
NEEDLES        CLEAR     77   8   7 SW9       29.78S
$$

NVZ020-UTZ003-250800-
SOUTHERN NEVADA-UTAH

CITY           SKY/WX    TMP DP  RH WIND       PRES   REMARKS
LAS VEGAS      PTCLDY    72  11   9 S12       29.75F
SALT LAKE CITY MOCLDY    52  35  52 W6        29.86S
$$

NMZ009-TXZ055-250800-
NEW MEXICO-WEST TEXAS

CITY           SKY/WX    TMP DP  RH WIND       PRES   REMARKS
ALBUQUERQUE    CLEAR     56   9  15 N7        30.02S
EL PASO        CLEAR     67  18  15 S7        29.97S
$$


........................KEY........................
SKY/WX - SKY CONDITION/WEATHER
TMP    - TEMPERATURE IN FAHRENHEIT
DP     - DEW POINT IN FAHRENHEIT
RH     - RELATIVE HUMIDITY IN PERCENT
WIND   - DIRECTION AND SPEED IN MILES PER HOUR (MPH)
VRB    - VARIABLE WIND DIRECTION
PRES   - MEAN SEA LEVEL PRESSURE IN INCHES OF MERCURY
         F - FALLING PRESSURE   R - RISING PRESSURE
         S - STEADY PRESSURE
VSB    - VISIBILITY IN MILES
HX     - HEAT INDEX IN FAHRENHEIT
WCI    - WIND CHILL INDEX IN FAHRENHEIT
TC     - TEMPERATURE IN CELSIUS WHICH IS ALSO KNOWN AS
         TEMPERATURE IN CENTIGRADE
AFB    - AIR FORCE BASE
         LUKE AFB IS LUKE AIR FORCE BASE
         DAVIS-MONTHAN IS DAVIS-MONTHAN AIR FORCE BASE
NAS    - NAVAL AIR STATION
         EL CENTRO NAS IS EL CENTRO NAVAL AIR STATION
N/A    - NOT AVAILABLE



USA.gov is the U.S. government's official web portal to all federal, state and local government web resources and services.